VE4JMP Weather Reports


Display with metric or nautical units.
time (UTC)temp
F
wind
direction
speed
MPH
gust
MPH
rain 1hr
in
rain 24hr
in
rain mn
in
humidity
%
barometer
mb
20260504001026 66 264 15.0 24.0 0.00 0.00 0.00 34 994.3
20260504000031 67 264 15.0 24.0 0.00 0.00 0.00 34 994.3
20260503235017 68 267 16.0 24.0 0.00 0.00 0.00 33 994.2
20260503234021 69 262 14.0 19.0 0.00 0.00 0.00 34 994.1
20260503233025 69 253 12.0 21.0 0.00 0.00 0.00 40 994.3
20260503232050 70 263 12.0 16.0 0.00 0.00 0.00 36 994.5
20260503231015 71 260 15.0 22.0 0.00 0.00 0.00 39 994.6
20260503230020 70 268 22.0 27.0 0.00 0.00 0.00 38 994.5
20260503225023 71 248 16.0 22.0 0.00 0.00 0.00 36 994.5
20260503224027 69 242 15.0 21.0 0.00 0.00 0.00 37 994.4
20260503223032 69 256 13.0 21.0 0.00 0.00 0.00 36 994.1
20260503222017 70 264 15.0 23.0 0.00 0.00 0.00 34 994.1
20260503221021 69 226 11.0 16.0 0.00 0.00 0.00 31 994.6
20260503220026 69 251 15.0 23.0 0.00 0.00 0.00 32 994.8
20260503215050 69 221 5.0 8.0 0.00 0.00 0.00 32 995.1
20260503214016 68 260 5.0 7.0 0.00 0.00 0.00 32 995.4
20260503213020 67 263 6.0 7.0 0.00 0.00 0.00 33 996.0
20260503212024 68 239 11.0 15.0 0.00 0.00 0.00 35 996.3
20260503211022 68 270 7.0 9.0 0.00 0.00 0.00 33 996.9
20260503210020 68 229 9.0 13.0 0.00 0.00 0.00 32 997.0
20260503205018 68 194 7.0 9.0 0.00 0.00 0.00 31 996.9
20260503204016 69 256 9.0 11.0 0.00 0.00 0.00 31 996.9
20260503203027 68 244 5.0 6.0 0.00 0.00 0.00 31 997.2
20260503202030 72 240 13.0 15.0 0.00 0.00 0.00 28 997.5
20260503201016 73 276 11.0 13.0 0.00 0.00 0.00 28 998.0
20260503200020 71 239 10.0 15.0 0.00 0.00 0.00 29 998.5
20260503195025 71 252 12.0 18.0 0.00 0.00 0.00 28 998.9
20260503194050 72 243 10.0 16.0 0.00 0.00 0.00 29 999.1
20260503193015 73 247 9.0 12.0 0.00 0.00 0.00 29 999.3
20260503192019 71 221 10.0 14.0 0.00 0.00 0.00 29 999.7
20260503191023 71 240 10.0 15.0 0.00 0.00 0.00 30 1000.0
20260503190027 71 250 9.0 13.0 0.00 0.00 0.00 30 1000.4
20260503185031 70 238 8.0 11.0 0.00 0.00 0.00 32 1000.7
20260503184018 69 232 7.0 12.0 0.00 0.00 0.00 32 1001.1
20260503183022 68 218 7.0 10.0 0.00 0.00 0.00 32 1001.8
20260503182046 68 223 9.0 11.0 0.00 0.00 0.00 31 1002.3
20260503181031 69 237 8.0 11.0 0.00 0.00 0.00 30 1002.5
20260503180017 70 240 8.0 15.0 0.00 0.00 0.00 29 1002.7
20260503175020 69 212 9.0 13.0 0.00 0.00 0.00 29 1002.9
20260503174024 69 213 8.0 11.0 0.00 0.00 0.00 31 1003.2
20260503173028 68 234 6.0 9.0 0.00 0.00 0.00 34 1003.5
20260503172032 67 254 7.0 11.0 0.00 0.00 0.00 35 1004.0
20260503171018 67 239 8.0 11.0 0.00 0.00 0.00 34 1004.6
20260503131026 44 228 4.0 5.0 0.00 0.00 0.00 59 1008.8
20260503081022 31 225 2.0 2.0 0.00 0.00 0.00 87 1010.4
20260503072044 31 0.0 0.0 0.00 0.00 0.00 82 1010.5
20260503071029 32 0.0 0.0 0.00 0.00 0.00 79 1010.6
20260503055026 36 0.0 0.0 0.00 0.00 0.00 70 1010.8
20260503054023 37 0.0 0.0 0.00 0.00 0.00 70 1010.8
20260503053016 38 0.0 0.0 0.00 0.00 0.00 68 1011.0
20260503052020 39 0.0 0.0 0.00 0.00 0.00 68 1011.0
20260503051018 40 60 1.0 2.0 0.00 0.00 0.00 65 1011.0
20260503050017 41 24 2.0 3.0 0.00 0.00 0.00 64 1011.1
20260503045033 42 48 3.0 3.0 0.00 0.00 0.00 63 1011.1
20260503044039 43 47 3.0 5.0 0.00 0.00 0.00 61 1011.0
20260503043022 44 37 4.0 5.0 0.00 0.00 0.00 60 1010.8
20260503042026 44 37 4.0 5.0 0.00 0.00 0.00 59 1011.0
20260503041030 45 34 4.0 6.0 0.00 0.00 0.00 59 1011.0
20260503040016 46 32 5.0 6.0 0.00 0.00 0.00 58 1010.8
20260503035041 46 41 5.0 6.0 0.00 0.00 0.00 57 1010.7
20260503034025 47 39 5.0 6.0 0.00 0.00 0.00 56 1010.7
20260503033109 48 33 4.0 5.0 0.00 0.00 0.00 55 1010.7
20260503032053 49 45 4.0 6.0 0.00 0.00 0.00 54 1010.6
20260503031019 50 40 5.0 7.0 0.00 0.00 0.00 53 1010.3
20260503030023 50 40 5.0 7.0 0.00 0.00 0.00 54 1010.4
20260503025107 49 27 3.0 5.0 0.00 0.00 0.00 57 1010.2
20260503024031 49 237 1.0 2.0 0.00 0.00 0.00 56 1009.9
20260503023018 49 248 0.0 2.0 0.00 0.00 0.00 55 1009.8
20260503022021 50 315 0.0 2.0 0.00 0.00 0.00 54 1009.7
20260503021026 50 272 1.0 3.0 0.00 0.00 0.00 54 1009.7
20260503020029 50 255 3.0 5.0 0.00 0.00 0.00 52 1009.3
20260503015015 51 266 1.0 2.0 0.00 0.00 0.00 48 1009.3
20260503014019 52 49 1.0 2.0 0.00 0.00 0.00 46 1009.3
20260503013023 53 45 2.0 2.0 0.00 0.00 0.00 45 1009.2
20260503012027 55 45 2.0 3.0 0.00 0.00 0.00 45 1009.2
20260503011032 56 49 2.0 3.0 0.00 0.00 0.00 44 1009.2
20260503010018 59 41 2.0 3.0 0.00 0.00 0.00 40 1009.1
20260503005022 60 54 3.0 4.0 0.00 0.00 0.00 37 1009.1
20260503004026 61 34 4.0 5.0 0.00 0.00 0.00 37 1009.1
20260503003024 62 38 4.0 5.0 0.00 0.00 0.00 36 1009.1
20260503002016 63 41 5.0 6.0 0.00 0.00 0.00 36 1009.1